Погода Миллерово

Погода Миллерово : погода сейчас, прогноз погоды и архив. Всё, что Вы хотите узнать о погоде Миллерово!

Хотите узнать прогноз погоды Миллерово? Тогда Вам сюда: Погода Миллерово

Поиск расширенной информации на нашем сайте:

Другие новости

Новости СМИ2

Главная страница сайта

Новости сайта

03.07.2017

Напоминаем, что на нашем специализированном сайте Метеоцентр.Азия вы можете получить высокодетализированные автоматические прогнозы погоды по пунктам России, СНГ и мира в авиационном формате (включающие направление и скорость ветра, видимость, явления погоды, количество и форму облачности, нижнюю и верхнюю границу облачности).


Погода Миллерово - сегодня

Время (UTC), дата Ветер
(°,м/с) 
Видим.   Явления Облачность Т
(°С)
Тd
(°С)
f(%) Тe
(°С)
Pmin
(гПа)
dP
(гПа)
Po
(мм)
O2
(г/м3)
Тmin Tmax R s Состояние
почвы
21 18.05.18 210 (ЮЗ) 4-11{11}  10 км  гроза, ливневой дождь  9/9 600 м кучево-дожд. 
[Cb calv]
+18.9 +13.3 70 +25  1012.9  0.8  746  279           
00 19.05.18 тихо () {13}  10 км  {гроза, ливн. осадки}  3/3 600 м кучево-дожд. 
[Cb calv]
+13.6 +13.6 100 +20  1012.7  -0.5  746  283           
03 19.05.18 180 (Ю) 4000 м  дымка  6/0 средняя 
[Ac cast]
+14.7 +13.4 92 +21  1012.7  746  282  +12.8    21     
06 19.05.18 190 (Ю) 10 км    ясно 
+19.9 +15.1 74 +30  1012.6  0.3  746  277           
09 19.05.18 230 (ЮЗ) 20000 м    6/6 600 м 
[Cu med, cong]
+24.9 +11.1 42 +28  1012.3  746  273           
12 19.05.18 170 (Ю) 2{13}  10 км  гроза, ливневой дождь  10/8 600 м кучево-дожд., верхняя 
[Cb calv|Ci sp]
+18.1 +13.8 76 +26  1012.8  0.1  746  279           
15 19.05.18 210 (ЮЗ) 10 км  {гроза, ливн. осадки}  9/3 600 м кучево-дожд., верхняя 
[Cb calv|Ci sp]
+21.4 +11.6 54 +25  1012.1  -0.5  746  276    +25.3  0.8     
18 19.05.18 170 (Ю) 2{10}  10 км  {гроза, ливн. осадки}  8/3 600 м кучево-дожд., верхняя 
[Cb calv|Ci fib]
+18.3 +11.1 63 +22  1013.2  0.9  746  280           
21 19.05.18 тихо ()   10 км    8/0 средняя 
[Ac trans]
+16.3 +12.8 80 +22  1013.5  0.2  746  281           
00 20.05.18 тихо ()   10 км    ясно 
+12.5 +12.1 97 +17  1013.5  -0.3  746  285           
03 20.05.18 тихо ()   10 км    10/0 средняя, верхняя 
[Ac As|Cc]
+14 +12.7 92 +19  1014.2  0.8  747  284  +11.8        влажная 
06 20.05.18 180 (Ю) 10 км  в посл. час ливневой дождь  9/8 600 м кучево-дожд., средняя 
[Cb calv|Ac lent]
+17.9 +14.2 79 +26  1014.4  0.5  747  280           
09 20.05.18 280 (З) 10 км  в посл. час ливневой дождь  9/6 600 м кучево-дожд., средняя 
[Cb calv|Ac lent]
+19.8 +14.4 71 +29  1015.1  0.8  748  278           
12 20.05.18 210 (ЮЗ) 10 км  {ливн. осадки}  4/4 1000 м 
[Cu med, cong]
+24.2 +11.8 46 +28  1013.9  -1  747  274           
15 20.05.18 тихо ()   10 км    8/5 1000 м верхняя 
[Cu med, cong|Ci fib]
+24.1 +11.2 44 +27  1012.9  -0.9  746  274    +25.3  0.0     
18 20.05.18 020 (С) 3{15}  10 км  гроза без осадков{ливн. осадки}  9/8 300 м кучево-дожд., средняя 
[Cb calv|Ac trans]
+16.7 +14.9 89 +26  1014.1  0.7  747  280           
21 20.05.18 170 (Ю) 3{12}  10 км  слаб. ливневой дождь{гроза}  10/10 300 м кучево-дожд. 
[Cb calv]
+15.1 +15.1 100 +24  1015.8  1.5  748  282           
00 21.05.18 тихо ()   10 км  {гроза, ливн. осадки}  9/9 300 м кучево-дожд. 
[Cb calv]
+15.1 +15.1 100 +24  1014.4  -1.3  747  282           
03 21.05.18 360 (С) 10 км    9/8 600 м кучево-дожд., средняя 
[Cb calv|Ac trans]
+15 +15 100 +25  1014.5  0.1  747  282  +14.6    11    влажная 
06 21.05.18 120 (ЮВ) 10 км    9/5 1000 м средняя, верхняя 
[Cu med, cong|Ac lent|Cc]
+19.5 +15.8 79 +30  1015.6  1.3  748  278           
09 21.05.18 240 (ЮЗ) 10 км    9/9 600 м 
[Cu med, cong]
+21.7 +15.8 69 +32  1016.2  0.8  749  276           
12 21.05.18 170 (Ю) 10 км    9/9 600 м кучево-дожд. 
[Cb calv]
+22 +15.4 66 +31  1016.6  0.3  749  276           
15 21.05.18 280 (З) 10 км  {гроза, ливн. осадки}  4/4 600 м 
[Cu med, cong]
+22.5 +14.3 60 +30  1016.4  -0.1  749  276    +23  0.7     
18 21.05.18 060 (СВ) 10 км  {гроза, ливн. осадки}  3/3 1000 м 
[Cu med, cong]
+16.7 +14.9 89 +26  1018.4  1.6  750  282           
21 21.05.18 080 (В) 10 км    ясно 
+16.1 +15.7 97 +27  1018.7  -0.2  750  282           
Время (UTC), дата Ветер
(°,м/с) 
Видим.   Явления Облачность Т
(°С)
Тd
(°С)
f(%) Тe
(°С)
Pmin
(гПа)
dP
(гПа)
Po
(мм)
O2
(г/м3)
Тmin Tmax R s Состояние
почвы

Для получения пояснительной информации подведите курсор к названию столбца.

ПОГОДА Миллерово - архив

Всё, что Вы хотите узнать о погоде Миллерово - удобно и подробно!

Выберите нужную дату (начиная с 1 января 2015* года) и нажмите кнопку "Найти".
Будут отображены архивные сводки погоды по пункту Миллерово, начиная с указанной даты.


Отображать данные в формате CSV (для использования в таблицах Excel)


Внимание! Наш архив погоды предназначен исключительно для личного некоммерческого использования в познавательных целях. Если Вам необходимы официальные справки о состоянии погоды (для производственных, юридических, коммерческих и т.п. целей), обращайтесь в органы Росгидромета.

*Примечание: данная дата относится к архиву по метеостанциям СССР (Россия, СНГ, Балтия).
Архив по метеостанциям Зарубежной Европы и Азии (кроме Китая) хранится 10 дней, по другим регионам земного шара (Китай, Африка, Америка, Австралия, Океания) - 1 день.

Миллерово - район местоположения метеостанции


Название, широта, долгота, высота метеостанции:
Миллерово 48.9°ш. 40.4°д. 155 м над ур. моря [Российская Федерация]

Дополнительная информация

В oтличие oт бoльшинства пoгoдных сайтoв мы публикуем пoдрoбную метеoинфoрмацию в детальнoм прoфессиoнальнoм фoрмате.

Характеристики температуры и влажнoсти вoздуха измеряются на высoте 2 м в тени вдали oт зданий и деревьев.
Скoрoсть ветра измеряется на высoте 10 м (на урoвне рoста челoвека скoрoсть ветра ниже в 1.5-2 раза). Если метеoстанция нахoдится в гoрoде или в лесу, тo скoрoсть ветра занижена на 2-4 м/с пo сравнению с oткрытым местoм. Скoрoсть ветра над акватoриями крупных рек и oзёр, а также на вершинах хoлмoв на 2-5 м/с выше, чем в oбычных услoвиях.
Атмoсфернoе давление в разных тoчках местнoсти мoжет значительнo oтличаться oт давления на метеoстанции, в зависимoсти oт услoвий рельефа (при пoдъёме на 10 м давление пoнижается примернo на 1 мм рт.ст.).